{"data":{"norad_id":54097,"epoch":"2026-05-24T22:01:06.657024Z","epoch_age_seconds":85273,"freshness":"FRESH","line1":"1 54097U 22136AY  26144.91743816  .00000167  00000+0  28566-4 0  9999","line2":"2 54097  53.2160 326.8492 0001289  90.2757 269.8383 15.08837395198846","mean_motion":15.08837395,"eccentricity":0.0001289,"inclination_deg":53.216,"raan_deg":326.8492,"arg_perigee_deg":90.2757,"mean_anomaly_deg":269.8383,"bstar":2.8566e-5,"rev_number":19884,"period_min":95.437719450213,"perigee_km":538.85963560992,"apogee_km":540.64306722691,"semimajor_km":6917.8883514184,"source":"CELESTRAK","updated_at":"2026-05-25T13:38:17.656787Z"}}